Theta_e
341 341 344 351 366 364 358 357 347 350 347 342 342 341 340 340 342 363 347 343 341 345 347 345 347 345 351 349 349 346 344 343 343 344 343 343 343 342 342 344 347 348 349 348 346 348 345 345 347
339 341 346 359 364 361 357 348 350 347 343 341 341 340 340 339 344 350 348 342 341 346 346 351 346 348 351 351 349 346 343 341 339 340 339 339 341 341 341 344 345 345 348 351 347 345 344 341 344
340 341 353 359 358 356 357 347 348 345 342 342 341 339 338 340 337 348 348 343 342 345 349 350 346 345 348 349 347 345 341 338 338 339 339 338 340 340 340 341 342 340 346 346 347 347 346 344 342
337 343 344 352 353 350 349 344 345 345 344 342 340 339 337 337 337 343 347 345 342 345 349 348 346 348 349 348 346 344 340 341 340 338 338 337 336 336 335 338 337 337 338 343 345 345 346 345 344
336 347 354 353 351 345 342 342 341 344 344 343 340 340 339 336 342 346 345 345 346 347 349 345 346 349 347 346 344 343 337 342 340 334 336 336 335 334 333 333 335 333 333 337 339 342 345 344 345
343 341 345 343 339 335 335 339 339 341 341 342 339 339 338 336 341 344 344 345 345 346 349 347 346 348 347 346 344 344 341 334 335 330 331 335 334 333 331 331 332 331 330 329 332 331 331 345 347
342 343 342 339 337 335 333 335 338 337 337 338 339 339 336 335 339 344 344 344 345 345 345 347 346 349 347 345 344 344 342 334 329 326 324 332 331 331 327 329 329 327 322 319 322 320 320 333 341
340 342 337 336 336 336 333 331 334 333 333 332 337 339 333 334 338 343 342 342 343 341 340 344 347 346 346 344 342 344 341 334 328 321 317 324 319 319 325 325 323 318 314 314 317 318 318 321 331
332 335 332 330 331 334 330 328 328 330 332 331 329 334 332 334 336 341 342 341 340 337 337 335 345 346 345 343 342 343 340 336 327 319 313 321 324 325 325 324 313 309 308 310 312 314 315 318 318
331 335 330 328 327 328 327 326 327 325 327 326 325 328 331 334 335 339 341 341 339 337 337 336 342 345 344 342 340 337 335 331 319 315 311 322 323 323 322 309 307 305 305 305 306 310 313 315 317
327 330 328 325 326 324 326 324 324 323 325 327 326 323 328 331 334 337 339 340 339 337 337 336 335 343 342 341 338 335 332 326 321 320 314 319 319 320 317 310 311 309 310 310 309 310 310 311 311
326 325 324 325 325 325 325 324 323 322 323 324 322 323 325 328 329 335 338 338 338 337 337 336 335 336 339 340 337 334 329 325 323 320 316 316 317 314 317 313 312 310 310 309 309 309 308 307 308
323 324 324 325 324 324 324 324 324 323 323 322 322 322 323 325 325 330 335 337 337 336 336 337 336 336 335 338 335 333 329 325 320 316 315 316 315 314 313 312 311 310 309 309 309 308 308 307 307
323 323 323 321 321 322 322 323 323 322 322 322 322 322 321 321 324 325 328 330 334 335 335 336 337 336 335 334 335 332 330 324 316 315 314 314 314 314 313 312 311 310 309 309 309 308 308 307 307
324 322 321 322 321 323 322 322 322 321 322 322 322 319 320 320 323 324 325 326 328 332 333 335 336 337 336 334 333 332 330 323 316 315 314 314 315 314 313 312 311 311 310 309 308 307 307 307 307
320 321 323 324 323 324 322 323 323 321 320 320 319 317 317 317 318 321 322 324 325 326 329 332 335 337 337 335 332 331 328 323 317 315 314 313 314 314 313 312 312 311 310 308 308 307 307 307 307
323 321 323 322 321 321 322 321 321 320 319 318 317 317 317 317 318 320 320 320 322 324 324 327 331 336 338 337 334 330 327 323 318 316 314 314 313 313 313 312 312 311 310 308 308 308 308 308 308
320 318 318 318 318 319 320 320 320 319 320 320 319 318 318 318 318 319 318 318 320 320 322 323 325 334 337 337 336 330 326 323 320 317 315 314 313 313 313 312 311 311 310 309 308 308 307 307 308
316 316 317 319 321 322 323 322 321 321 321 322 322 320 318 318 317 316 316 315 317 317 318 319 319 324 332 336 336 332 325 322 320 318 316 314 313 312 312 312 311 311 309 309 308 307 308 307 306
320 321 321 322 323 320 320 320 320 322 322 320 319 316 315 314 313 313 314 314 314 314 315 316 318 318 318 330 335 332 327 323 320 319 317 315 313 312 312 312 311 311 309 309 309 307 307 307 307
321 321 322 322 321 320 321 322 323 321 320 317 314 312 310 309 310 310 311 311 312 313 313 314 315 316 317 317 329 331 327 324 321 319 317 316 314 313 312 312 311 311 309 309 309 308 307 307 306
320 321 320 321 321 322 320 322 321 321 319 315 312 311 310 308 308 309 310 310 310 311 312 313 313 314 316 315 316 326 328 324 322 320 318 317 315 313 312 311 311 310 309 309 308 308 307 308 307
319 320 320 321 322 321 323 324 322 321 320 317 315 312 307 307 308 308 309 309 310 310 312 311 311 314 315 316 315 316 321 327 324 321 319 317 315 314 312 311 311 310 309 309 309 308 307 307 307
319 321 319 318 319 325 323 324 323 322 318 312 308 307 305 306 307 308 309 309 309 310 311 311 311 312 313 315 315 314 316 321 325 323 320 317 315 313 312 311 310 310 309 309 308 308 307 307 305
320 319 320 323 328 329 320 319 321 316 310 306 305 305 304 304 306 306 306 308 309 309 310 311 311 312 313 314 316 315 313 316 324 324 321 317 314 313 312 311 310 309 309 308 308 307 306 306 305
315 317 320 321 320 322 318 319 320 311 306 305 305 305 304 304 306 306 307 307 308 308 308 310 310 311 310 312 315 314 313 313 317 324 323 317 315 313 312 311 309 309 308 308 307 307 306 305 305
316 316 311 316 317 317 317 317 315 308 306 305 305 305 304 304 306 306 306 307 307 307 308 308 310 308 308 309 313 314 313 312 313 317 322 321 316 314 311 310 309 308 308 307 307 306 305 305 304
313 311 310 310 311 312 311 310 310 306 305 305 304 304 303 304 305 305 305 306 306 306 307 309 308 307 306 307 311 312 313 312 311 312 319 320 319 315 311 310 309 308 307 307 306 306 305 305 304
308 308 308 308 308 309 312 311 308 305 305 305 304 303 303 304 305 305 305 305 305 305 307 306 305 306 306 307 310 311 310 312 310 311 313 318 318 316 312 310 309 308 307 307 306 305 305 304 304
306 305 306 312 311 309 308 308 306 305 305 305 304 303 303 305 305 305 305 305 305 306 304 304 305 305 306 307 308 308 310 311 311 309 310 312 315 315 313 310 309 308 307 306 306 305 304 304 304
Wind_Speed
10 8 7 4 2 2 2 6 4 7 2 6 5 8 7 7 6 3 10 10 15 15 12 11 10 10 10 10 11 10 8 6 6 7 8 8 7 7 7 9 11 13 14 10 10 10 11 11 10
4 4 3 3 3 2 3 8 8 6 8 4 2 4 4 11 9 9 13 12 16 15 10 12 11 12 10 11 12 11 7 6 10 10 11 12 12 12 12 12 10 10 12 15 11 10 9 10 9
4 4 3 3 4 2 3 11 7 8 6 3 2 5 2 4 6 17 14 17 16 14 16 14 12 11 12 12 12 10 7 10 11 11 11 12 12 12 13 12 12 11 11 10 12 11 11 8 9
5 3 4 3 10 4 11 4 7 2 5 0 8 4 5 11 6 10 19 18 17 14 13 12 12 12 13 11 11 11 11 11 11 11 10 11 11 12 11 10 10 11 10 10 10 9 9 8 8
5 4 3 7 13 7 2 8 4 5 3 4 6 6 3 9 11 15 17 17 17 16 14 12 15 15 13 11 12 13 11 12 11 10 10 10 10 10 10 10 9 10 11 11 10 9 9 9 7
3 3 4 6 11 11 10 3 5 5 7 2 4 6 2 16 15 15 17 16 15 17 13 12 16 15 14 13 14 13 13 11 11 10 9 10 9 9 9 9 9 9 9 9 9 7 7 9 10
3 3 6 9 8 8 9 9 7 7 10 9 5 1 4 11 14 17 16 15 14 15 13 15 14 14 14 13 15 14 13 12 11 9 8 9 9 8 7 8 7 7 7 6 7 7 7 7 6
2 2 5 7 7 8 6 5 3 6 8 8 4 2 5 11 16 16 15 14 15 15 17 18 20 18 13 14 16 16 14 13 11 9 9 9 8 9 8 7 6 6 5 5 6 7 8 8 6
1 2 5 9 8 7 10 10 9 5 2 6 8 5 7 19 16 15 17 15 17 17 18 17 23 21 18 17 18 16 14 13 12 11 8 9 7 8 7 6 5 6 6 5 5 7 8 9 9
2 3 5 6 7 7 10 9 9 10 9 10 9 7 17 20 20 17 15 17 18 18 18 19 22 22 23 21 19 17 16 17 14 12 12 11 10 10 6 4 5 7 9 9 8 8 7 5 4
3 3 5 9 7 7 8 11 9 9 8 8 9 11 1 9 15 15 18 20 20 20 21 20 20 24 24 25 25 19 18 15 14 12 13 13 15 14 9 4 5 6 7 6 5 3 4 6 4
3 8 10 7 7 7 9 11 10 11 11 9 10 9 7 11 10 16 17 20 20 24 25 24 24 24 25 27 25 20 24 19 20 19 14 19 17 13 11 4 6 5 5 5 6 1 5 6 6
9 12 13 7 8 7 10 10 10 13 14 12 13 11 9 8 9 20 23 24 24 22 24 27 25 23 27 26 27 21 26 24 22 21 20 21 16 15 13 14 9 8 8 6 4 4 3 4 5
7 10 13 13 15 12 13 10 7 11 10 10 9 9 9 10 12 18 18 21 23 20 22 28 29 28 23 28 28 28 24 24 23 24 24 22 20 18 18 15 13 11 10 9 6 6 7 4 3
7 12 13 16 15 7 6 8 11 13 11 9 8 9 10 11 15 17 23 21 23 25 24 27 31 31 29 27 29 29 28 25 25 27 26 25 22 21 20 18 16 13 13 9 10 9 7 7 6
6 8 4 5 4 5 7 9 10 8 7 8 9 10 11 11 12 15 17 26 26 23 23 22 30 34 33 29 27 29 31 27 27 25 27 26 25 23 21 20 18 16 14 15 13 11 9 8 7
7 5 9 8 6 2 6 10 7 9 11 14 10 9 9 8 9 15 27 16 17 25 22 24 21 31 32 30 26 27 29 29 28 27 28 28 29 27 25 23 21 21 19 16 15 13 11 9 8
11 12 12 12 8 11 10 15 12 11 10 10 9 8 8 6 20 33 38 41 34 32 15 18 18 23 32 30 28 26 29 31 31 31 29 30 32 31 28 26 24 23 20 18 17 15 13 11 9
8 11 13 13 13 12 9 16 20 19 12 9 7 16 19 19 20 33 36 41 41 45 42 41 40 18 19 28 29 26 28 30 29 31 30 31 34 33 31 29 26 25 24 22 20 17 15 14 11
8 13 14 12 10 13 11 18 22 23 6 20 20 20 19 20 20 26 31 35 36 36 39 41 39 39 37 17 31 31 32 31 31 31 31 33 35 37 36 32 30 29 25 22 22 20 18 15 14
11 12 10 13 15 14 10 7 2 15 22 21 20 17 19 19 19 17 24 30 32 32 35 37 38 37 36 36 19 29 27 28 29 32 36 37 37 37 37 35 33 31 29 27 26 24 21 18 15
9 9 11 12 11 4 10 6 9 10 17 17 12 11 14 16 15 16 23 28 32 29 27 29 31 33 35 39 32 21 29 26 30 35 38 37 37 36 38 36 34 32 31 29 29 26 25 19 18
6 9 13 15 13 11 10 4 6 17 14 12 11 14 13 13 15 18 24 26 26 30 26 27 30 26 29 33 38 32 26 30 31 32 35 35 37 37 38 37 35 34 34 30 30 28 26 25 17
9 11 17 17 8 5 9 10 4 4 13 10 11 12 14 11 11 12 19 23 24 28 25 24 28 28 29 30 29 36 32 27 28 29 31 33 36 38 38 40 38 37 35 34 31 29 27 23 22
9 11 4 2 2 5 14 6 4 16 15 16 13 14 16 15 10 12 13 21 23 26 30 25 24 27 31 30 28 30 36 33 30 34 32 31 31 34 36 42 39 40 38 35 32 30 28 26 22
12 5 4 5 4 8 19 4 6 17 17 13 14 11 9 10 7 9 12 20 25 27 29 30 26 26 29 33 29 27 32 34 31 33 33 33 34 34 37 42 42 40 39 35 33 31 29 26 23
8 4 4 5 9 10 6 6 19 15 17 16 19 15 12 12 8 9 13 18 20 25 26 31 27 27 29 33 33 28 31 34 32 30 36 34 35 37 39 40 41 39 38 37 35 33 31 27 25
5 3 2 3 5 5 4 7 4 23 21 24 21 16 17 15 15 17 24 27 28 32 27 24 23 27 30 32 30 29 33 35 36 32 33 36 34 34 37 42 42 39 39 39 36 33 31 28 26
5 6 7 5 6 4 5 6 7 16 18 23 22 16 13 8 9 11 16 20 25 31 28 23 29 30 26 27 27 27 32 35 36 32 28 34 35 33 39 42 42 42 40 41 38 36 32 31 27
4 7 8 1 5 4 3 17 19 13 21 18 18 14 9 9 9 11 16 21 22 22 28 29 30 32 30 20 23 28 30 31 35 31 28 26 32 34 37 41 41 40 40 42 41 39 33 33 30
Wind_Direction
341 318 296 283 274 238 88 290 44 71 63 65 50 25 333 14 26 51 156 149 133 148 162 153 143 137 136 132 126 122 127 114 97 97 82 81 81 72 64 60 60 62 64 67 73 72 66 73 72
4 321 269 274 243 224 337 259 89 74 63 8 26 323 328 87 86 121 169 153 148 151 150 168 149 150 143 138 136 134 138 123 105 97 89 81 76 75 73 72 74 66 64 63 71 70 70 73 77
358 278 276 201 269 64 297 248 60 86 75 309 310 145 343 93 77 149 166 159 158 156 157 165 152 157 155 148 146 146 140 121 106 99 95 87 84 79 74 75 74 68 70 75 75 74 73 75 77
280 214 252 257 267 246 197 38 55 4 126 1 330 339 122 81 113 141 148 163 167 160 165 167 160 164 163 158 155 153 140 128 119 111 105 97 90 83 75 77 74 70 79 72 71 70 72 76 86
247 258 261 248 261 274 8 59 91 299 259 195 163 312 86 119 112 126 154 170 174 165 165 169 168 174 176 174 162 155 150 139 134 122 116 107 99 92 84 75 70 68 73 77 75 73 69 83 104
275 236 280 289 334 340 348 344 112 288 285 155 145 233 106 147 148 148 166 177 185 165 166 172 175 185 182 177 166 160 155 150 147 137 129 122 111 100 93 87 81 74 65 69 71 77 86 88 99
253 292 274 294 299 315 317 23 9 353 330 331 130 44 137 144 162 155 170 183 189 173 175 168 180 188 194 186 177 173 170 164 161 153 143 138 126 116 104 100 93 81 73 68 66 62 73 96 124
306 285 276 274 276 296 307 348 26 296 297 337 60 261 20 152 166 166 173 193 185 188 181 186 175 182 196 194 185 184 177 175 173 172 159 151 136 123 108 94 100 94 78 77 77 73 70 72 82
260 277 280 287 311 338 351 347 334 338 251 285 286 175 94 141 165 182 186 197 188 194 195 204 180 178 189 196 195 189 183 182 183 182 171 144 111 122 144 177 121 93 85 82 81 83 78 69 51
231 244 261 318 345 332 329 317 307 310 311 309 314 262 156 159 179 193 196 196 204 196 205 203 190 186 185 191 194 195 198 197 196 194 177 139 158 167 186 139 120 104 92 82 84 89 78 62 61
243 238 298 320 331 332 299 299 294 300 286 250 275 302 61 166 187 203 213 213 205 206 203 210 214 190 184 190 193 192 205 206 201 195 182 158 191 189 208 144 119 104 95 84 73 105 138 128 104
267 259 272 273 280 291 292 301 295 282 268 275 266 264 279 176 201 210 222 228 221 206 202 202 216 207 196 193 193 195 200 205 203 196 191 192 200 178 192 164 159 167 147 161 146 184 90 90 106
258 268 278 315 306 277 274 266 264 271 276 280 284 284 255 237 252 220 220 231 237 217 203 200 210 222 203 201 196 194 205 196 201 202 196 200 196 184 188 187 197 164 178 168 180 148 137 150 164
325 316 294 284 273 271 267 275 279 262 273 269 255 258 255 255 218 260 234 241 237 240 214 203 205 216 215 208 205 199 210 204 203 206 199 203 196 190 191 192 185 189 172 185 177 182 183 181 188
302 288 283 268 258 216 36 288 240 264 248 234 260 269 250 226 238 218 238 248 252 239 240 213 202 204 218 217 212 206 207 210 207 209 202 202 203 194 198 193 197 190 187 180 179 185 188 203 203
253 252 291 254 124 127 114 273 298 328 16 328 314 315 322 321 313 290 255 233 232 248 244 242 209 203 206 219 219 213 205 213 212 214 204 207 204 200 198 193 197 188 187 190 194 193 190 199 209
232 266 293 320 65 94 206 286 257 261 283 278 275 276 265 285 296 300 4 314 244 226 240 244 238 202 200 210 223 216 204 211 213 216 210 208 208 203 200 197 195 193 196 195 192 195 200 208 216
327 321 313 306 318 310 281 284 297 288 276 275 275 272 282 333 39 37 29 22 17 10 232 243 253 215 204 208 215 221 211 212 213 215 214 210 208 207 202 201 198 199 198 194 194 200 205 205 218
311 293 290 294 301 305 320 309 301 296 287 283 312 42 57 52 38 32 27 20 20 21 13 10 13 315 228 207 206 217 212 212 214 215 218 214 210 212 204 205 199 203 202 198 199 195 200 207 211
290 285 286 286 340 343 305 293 286 279 43 74 65 55 41 34 30 25 22 20 16 14 10 4 359 355 349 280 209 210 216 217 220 218 220 221 214 214 207 205 200 201 200 198 200 197 198 207 203
297 297 314 319 323 292 301 271 82 62 79 72 62 58 47 33 23 20 20 17 9 10 6 356 349 346 346 340 278 214 221 220 214 217 220 221 217 213 211 205 202 203 203 199 202 200 199 196 199
312 355 336 313 315 295 6 289 300 112 88 77 77 66 54 35 24 20 14 7 360 353 358 353 344 339 337 337 338 296 217 214 212 216 219 220 217 212 211 208 205 203 205 204 205 205 205 197 197
279 330 297 279 270 285 262 244 278 132 103 88 58 49 39 39 31 16 5 358 351 349 349 345 335 330 331 330 327 325 308 235 225 218 218 219 216 213 210 208 204 203 206 205 204 204 206 207 202
294 297 297 272 248 257 292 195 298 94 91 65 40 29 25 31 36 21 359 350 346 335 336 341 330 331 326 319 320 317 314 290 231 226 214 214 212 212 211 207 207 203 205 201 203 203 203 203 207
356 340 305 304 150 220 45 353 110 98 75 42 23 19 14 3 20 12 359 349 347 345 335 333 333 328 324 317 314 315 311 301 263 229 220 208 206 209 210 208 206 206 205 201 199 199 199 200 202
297 262 287 301 324 321 331 233 131 104 51 42 25 6 358 359 15 8 2 352 341 335 334 330 331 326 328 323 316 317 312 303 280 247 232 214 206 211 210 208 205 207 205 200 197 198 199 200 203
9 347 346 295 276 270 227 242 134 49 29 21 359 355 353 350 4 357 347 343 333 333 325 319 324 334 331 326 327 325 322 312 303 278 237 231 219 212 211 209 204 205 201 198 195 196 196 199 202
228 72 11 304 279 273 290 315 273 5 2 352 346 341 342 350 357 354 349 337 341 327 325 324 325 321 323 319 322 330 323 314 304 293 251 229 233 219 209 205 202 203 199 195 193 193 195 195 200
322 301 291 260 243 267 320 255 49 2 354 339 331 337 329 346 342 338 325 329 332 320 313 337 331 318 315 311 323 325 323 318 310 299 286 234 232 236 213 202 198 198 197 195 193 193 191 196 197
320 295 277 226 280 330 273 273 311 336 333 316 308 316 330 339 342 330 323 317 316 322 339 328 326 315 312 308 319 319 317 314 313 304 297 275 246 235 210 198 195 195 194 192 191 190 189 193 195